Location: Gwatt
(46.7204°N, 7.6223°E)
Time: 15:37:58
(UTC+00:00)

deb Explorer IX - Pass Details

Date: 21 January 2021
Orbit: 537 x 1102 km, 38.8° (Epoch: 04 March)

Event Time Altitude Azimuth Distance (km) Brightness Sun altitude
Rises 21:04:19 0° 260° (W) 3,265 ? -48.2°
Enters shadow 21:04:50 - 258° (WSW) 3,071 ? -48.3°
Reaches altitude 10° 21:07:11 10° 250° (WSW) 2,232 - -48.7°
Maximum altitude 21:11:39 30° 190° (S) 1,171 - -49.3°
Drops below altitude 10° 21:15:36 10° 128° (SE) 1,954 - -49.9°
Sets 21:17:58 0° 118° (ESE) 2,793 - -50.3°
